CARTOSAT-2E (42767 NORAD) Tracking and Keplerian Element Data

This shows tracking and keplerian element data for the satellite.

Feedback or suggestion? Click here.




ElementValue
Catalog42767
NameCARTOSAT-2E
Epoch Orbit10166
Epoch Day113.79682204
Epoch Year2019
RAAN173.1803
Inclination97.4742
Eccentricity0.0011175
Argument of Perigee73.4874
Mean Anonmoly286.481
Mean Motion15.19203494
Decay Rate2.039E-05
L11 42767U 17036C 19113.79682204 .00002039 00000-0 10000-3 0 9994
L22 42767 97.4742 173.1803 0011175 73.4874 286.4810 15.19203494101663

Live tracking and technical data element details for CARTOSAT-2E (NORAD 42767). CARTOSAT-2E can be tracked NOW for your location showing map with azimuth and elevation plus other details from your city location.

Track the satellite on the map from your city or location and see movement details for azimuth, elevation, latitude, longitude, range, height, and movement on the map or in text.







IsCatalogInMostPopularTable: catalog: 42767, numindb: 199
Update: records affected: 1



GetName: 42767 CARTOSAT-2E

Hit Count: updated at: Wed, 24 Apr 2019 18:17:22 GMT